Cloud_Cover
100 98 29 56 5 5 5 5 5 5 5 2 6 73 86 100 97 51 5 0 0 0 0 0 5 5 5 5 33 73 99 98 100 100 100 100 100 100
97 92 100 85 52 26 42 5 5 5 5 5 5 68 100 98 84 5 5 0 0 0 0 0 5 5 5 5 26 63 88 100 100 100 100 100 100 100
84 25 76 96 60 52 5 5 5 5 5 5 47 78 38 93 97 83 5 0 0 0 0 0 5 5 5 5 5 5 5 7 74 90 99 100 100 100
100 99 91 40 88 74 69 5 5 5 25 9 25 75 100 100 100 86 5 0 0 0 0 0 5 2 5 5 5 5 14 33 36 74 99 100 100 100
100 97 98 100 100 98 33 5 5 8 58 99 41 100 100 100 100 100 16 0 0 0 0 0 1 1 5 5 5 5 5 5 5 5 7 35 78 70
100 96 100 100 92 55 5 5 5 15 78 100 100 100 100 100 100 100 86 4 0 0 0 3 3 3 0 5 5 5 5 5 5 5 5 5 5 5
100 100 85 78 89 5 6 18 6 10 70 83 100 100 100 100 100 100 93 5 1 4 5 6 7 44 38 99 74 60 12 5 5 5 5 5 5 32
89 39 71 46 28 52 74 10 7 5 5 92 100 100 100 100 100 100 100 5 4 5 5 10 5 69 53 100 93 5 0 5 5 5 5 5 5 5
16 15 7 10 89 90 88 29 5 5 5 5 90 100 100 100 100 100 98 43 14 17 5 11 68 100 100 100 81 3 5 5 5 5 5 5 5 5
23 43 7 55 96 100 100 100 100 100 98 73 82 92 100 100 100 100 100 97 92 78 64 80 87 100 100 100 23 5 5 5 5 5 5 5 5 5
77 6 5 5 55 95 98 92 68 100 100 59 96 98 100 63 100 96 97 100 100 98 90 95 79 100 100 100 100 81 5 5 5 68 34 5 5 5
6 5 5 42 9 71 67 77 100 60 100 100 97 26 81 91 100 100 100 100 100 98 93 78 95 92 100 100 99 96 100 100 100 100 100 93 63 96
5 5 5 7 5 18 97 100 98 76 100 92 100 100 100 100 100 100 100 100 100 100 100 92 100 100 100 100 100 100 100 100 100 100 100 100 100 100
5 5 5 5 5 5 30 100 76 100 100 100 100 100 100 100 100 100 100 100 100 100 100 100 100 100 100 100 100 100 100 100 100 98 82 100 90 100
5 5 5 5 5 5 83 93 100 100 100 100 100 100 100 100 100 100 100 100 100 100 100 100 100 100 100 100 100 100 100 98 95 78 78 95 98 100
10 6 70 22 5 7 49 93 100 100 100 100 100 100 100 100 100 100 100 100 100 100 100 100 99 100 100 100 100 100 100 100 100 99 100 96 89 100
87 76 81 91 62 100 93 85 100 100 100 100 100 100 100 100 100 100 100 100 100 100 100 100 100 100 100 100 100 100 100 100 100 99 99 100 90 100
81 100 93 99 100 100 50 97 100 100 100 100 100 100 100 100 100 100 100 100 100 100 100 100 100 100 100 100 94 100 100 100 99 99 100 98 99 100
100 100 100 100 100 86 100 97 100 100 100 100 100 100 100 100 100 100 100 100 100 100 100 100 100 100 100 100 100 53 100 100 100 100 100 100 100 100
100 100 100 100 100 100 100 100 100 100 100 100 100 99 100 100 100 100 100 100 100 100 100 100 100 100 89 100 100 94 18 71 100 100 100 95 100 84
100 100 100 100 100 100 100 100 100 100 100 100 100 100 100 100 100 100 100 100 100 100 100 100 100 36 49 77 100 100 100 81 68 90 94 96 100 100
100 100 100 100 100 100 100 100 100 100 100 100 100 100 100 100 100 100 100 100 100 100 100 100 99 52 56 100 100 97 97 97 78 86 96 93 95 100
100 100 100 100 100 100 100 100 100 100 100 100 100 100 100 100 100 100 100 100 100 100 100 100 100 57 60 62 72 100 99 100 94 100 99 100 100 64